Location: Mohawk View
(42.7837°N, 73.7885°W)
Time: 09:53:56
(UTC+00:00)

Meteor 1-24 Rocket - Pass Details

Date: 31 October 2021
Orbit: 790 x 927 km, 81.3° (Epoch: 08 December)

Event Time Altitude Azimuth Distance (km) Brightness Sun altitude
Rises 08:04:30 0° 137° (SE) 3,307 7.1 -37.6°
Reaches altitude 10° 08:07:59 10° 113° (ESE) 2,403 6.5 -37.0°
Maximum altitude 08:10:44 14° 82° (E) 2,141 6.5 -36.5°
Drops below altitude 10° 08:13:32 10° 52° (NE) 2,453 6.8 -36.0°
Sets 08:17:08 0° 29° (NNE) 3,425 7.4 -35.4°
